When you browse on this site, cookies collect data to enhance your experience and personalize the content and advertising you see.
Visit our Privacy Policy to learn more. By continuing to use the site, you agree to this use of cookies and data.

Hourly Weather Punta Gorda

Today, 12 July, Sunday

Time Temperature Precipitation Wind Pressure Humidity
00:00 +26°C° 0.6 mm 3 mps 761 mmHg 96%
01:00 +26°C° 0.4 mm 2 mps 761 mmHg 96%
02:00 +26°C° 0.4 mm 2 mps 760 mmHg 96%
03:00 +26°C° 0.4 mm 1 mps 760 mmHg 97%
04:00 +26°C° 0.2 mm 1 mps 760 mmHg 97%
05:00 +26°C° 0.2 mm 1 mps 760 mmHg 97%
06:00 +26°C° 0.2 mm 1 mps 760 mmHg 97%
07:00 +27°C° 0.1 mm 1 mps 760 mmHg 91%
08:00 +29°C° 0.1 mm 1 mps 760 mmHg 84%
09:00 +30°C° 0.1 mm 1 mps 760 mmHg 78%
10:00 +32°C° 0 mm 1 mps 760 mmHg 69%
11:00 +34°C° 0 mm 2 mps 760 mmHg 61%
12:00 +35°C° 0 mm 2 mps 760 mmHg 53%
13:00 +35°C° 0 mm 3 mps 759 mmHg 52%
14:00 +35°C° 0 mm 4 mps 758 mmHg 51%
15:00 +35°C° 0 mm 4 mps 758 mmHg 50%
16:00 +34°C° 0 mm 4 mps 758 mmHg 57%
17:00 +32°C° 0 mm 4 mps 758 mmHg 64%
18:00 +30°C° 0 mm 4 mps 759 mmHg 72%
19:00 +28°C° 0 mm 3 mps 759 mmHg 78%
20:00 +27°C° 0 mm 3 mps 760 mmHg 85%
21:00 +26°C° 0 mm 3 mps 760 mmHg 92%
22:00 +26°C° 0.4 mm 2 mps 760 mmHg 93%
23:00 +25°C° 0.4 mm 2 mps 760 mmHg 94%

Tomorrow, 13 July, Monday

Time Temperature Precipitation Wind Pressure Humidity
00:00 +25°C° 0.4 mm 2 mps 760 mmHg 95%
01:00 +25°C° 0.3 mm 1 mps 760 mmHg 95%
02:00 +25°C° 0.3 mm 1 mps 760 mmHg 95%
03:00 +25°C° 0.3 mm 1 mps 759 mmHg 95%
04:00 +26°C° 0.5 mm 1 mps 759 mmHg 94%
05:00 +26°C° 0.5 mm 1 mps 760 mmHg 93%
06:00 +26°C° 0.5 mm 1 mps 760 mmHg 92%
07:00 +28°C° 0.1 mm 1 mps 760 mmHg 85%
08:00 +30°C° 0.1 mm 1 mps 760 mmHg 77%
09:00 +31°C° 0.1 mm 1 mps 760 mmHg 70%
10:00 +32°C° 0 mm 2 mps 760 mmHg 65%
11:00 +34°C° 0 mm 3 mps 760 mmHg 60%
12:00 +35°C° 0 mm 3 mps 759 mmHg 54%
13:00 +35°C° 0 mm 4 mps 759 mmHg 54%
14:00 +35°C° 0 mm 5 mps 758 mmHg 53%
15:00 +35°C° 0 mm 5 mps 758 mmHg 53%
16:00 +34°C° 0 mm 5 mps 758 mmHg 60%
17:00 +32°C° 0 mm 5 mps 758 mmHg 67%
18:00 +30°C° 0 mm 5 mps 759 mmHg 75%
19:00 +29°C° 0.1 mm 4 mps 759 mmHg 81%
20:00 +28°C° 0.1 mm 4 mps 760 mmHg 87%
21:00 +27°C° 0.1 mm 3 mps 760 mmHg 93%
22:00 +27°C° 0.9 mm 3 mps 760 mmHg 94%
23:00 +26°C° 0.9 mm 3 mps 760 mmHg 95%

Day after tomorrow, 14 July, Tuesday

Time Temperature Precipitation Wind Pressure Humidity
00:00 +26°C° 0.9 mm 2 mps 760 mmHg 96%
01:00 +26°C° 3 mm 3 mps 760 mmHg 96%
02:00 +26°C° 3 mm 3 mps 759 mmHg 96%
03:00 +26°C° 3 mm 3 mps 759 mmHg 96%
04:00 +26°C° 1.4 mm 3 mps 759 mmHg 96%
05:00 +26°C° 1.4 mm 3 mps 759 mmHg 96%
06:00 +26°C° 1.4 mm 2 mps 759 mmHg 96%
07:00 +27°C° 0.3 mm 2 mps 760 mmHg 93%
08:00 +28°C° 0.3 mm 3 mps 760 mmHg 91%
09:00 +30°C° 0.3 mm 3 mps 760 mmHg 88%
10:00 +31°C° 0.4 mm 3 mps 760 mmHg 82%
11:00 +31°C° 0.4 mm 3 mps 759 mmHg 76%
12:00 +33°C° 0.4 mm 3 mps 759 mmHg 70%
13:00 +33°C° 0.2 mm 4 mps 758 mmHg 69%
14:00 +33°C° 0.2 mm 4 mps 758 mmHg 68%
15:00 +33°C° 0.2 mm 4 mps 757 mmHg 68%
16:00 +32°C° 0.2 mm 4 mps 758 mmHg 72%
17:00 +30°C° 0.2 mm 4 mps 758 mmHg 77%
18:00 +29°C° 0.2 mm 4 mps 758 mmHg 82%
19:00 +28°C° 1.7 mm 4 mps 759 mmHg 86%
20:00 +28°C° 1.7 mm 4 mps 759 mmHg 91%
21:00 +27°C° 1.7 mm 4 mps 760 mmHg 96%
22:00 +27°C° 1.9 mm 4 mps 760 mmHg 96%
23:00 +26°C° 1.9 mm 4 mps 760 mmHg 96%

15 July, Wednesday

Time Temperature Precipitation Wind Pressure Humidity
00:00 +26°C° 1.9 mm 4 mps 759 mmHg 96%
01:00 +26°C° 1.4 mm 3 mps 759 mmHg 96%
02:00 +26°C° 1.4 mm 3 mps 759 mmHg 97%
03:00 +26°C° 1.4 mm 3 mps 758 mmHg 97%
04:00 +26°C° 0.3 mm 3 mps 759 mmHg 97%
05:00 +26°C° 0.3 mm 2 mps 759 mmHg 97%
06:00 +27°C° 0.3 mm 2 mps 759 mmHg 97%
07:00 +28°C° 0.1 mm 2 mps 759 mmHg 94%
08:00 +29°C° 0.1 mm 1 mps 760 mmHg 90%
09:00 +30°C° 0.1 mm 1 mps 760 mmHg 86%
10:00 +31°C° 0.2 mm 2 mps 760 mmHg 80%
11:00 +33°C° 0.2 mm 3 mps 759 mmHg 73%
12:00 +34°C° 0.2 mm 4 mps 759 mmHg 67%
13:00 +34°C° 0.3 mm 4 mps 759 mmHg 67%
14:00 +33°C° 0.3 mm 5 mps 758 mmHg 67%
15:00 +33°C° 0.3 mm 5 mps 758 mmHg 67%
16:00 +32°C° 1.6 mm 5 mps 758 mmHg 73%
17:00 +30°C° 1.6 mm 5 mps 759 mmHg 79%
18:00 +28°C° 1.6 mm 5 mps 759 mmHg 86%
19:00 +28°C° 1.8 mm 5 mps 759 mmHg 88%
20:00 +27°C° 1.8 mm 5 mps 760 mmHg 91%
21:00 +27°C° 1.8 mm 4 mps 761 mmHg 94%
22:00 +26°C° 0.6 mm 4 mps 760 mmHg 95%
23:00 +26°C° 0.6 mm 4 mps 760 mmHg 95%

16 July, Thursday

Time Temperature Precipitation Wind Pressure Humidity
00:00 +26°C° 0.6 mm 3 mps 760 mmHg 96%
01:00 +26°C° 0.2 mm 3 mps 760 mmHg 96%
02:00 +26°C° 0.2 mm 3 mps 760 mmHg 96%
03:00 +26°C° 0.2 mm 3 mps 760 mmHg 96%
04:00 +26°C° 0 mm 3 mps 760 mmHg 96%
05:00 +26°C° 0 mm 2 mps 760 mmHg 96%
06:00 +26°C° 0 mm 2 mps 760 mmHg 96%
07:00 +28°C° 0.1 mm 2 mps 760 mmHg 89%
08:00 +29°C° 0.1 mm 2 mps 761 mmHg 82%
09:00 +31°C° 0.1 mm 2 mps 761 mmHg 75%
10:00 +33°C° 0 mm 3 mps 761 mmHg 68%
11:00 +34°C° 0 mm 3 mps 761 mmHg 61%
12:00 +35°C° 0 mm 3 mps 760 mmHg 54%
13:00 +35°C° 0 mm 4 mps 760 mmHg 54%
14:00 +35°C° 0 mm 4 mps 759 mmHg 55%
15:00 +35°C° 0 mm 4 mps 759 mmHg 55%
16:00 +34°C° 0 mm 4 mps 759 mmHg 62%
17:00 +33°C° 0 mm 4 mps 759 mmHg 68%
18:00 +30°C° 0 mm 4 mps 760 mmHg 75%
19:00 +29°C° 0.2 mm 4 mps 760 mmHg 81%
20:00 +28°C° 0.2 mm 3 mps 760 mmHg 87%
21:00 +27°C° 0.2 mm 3 mps 761 mmHg 93%
22:00 +27°C° 0.3 mm 3 mps 761 mmHg 94%
23:00 +26°C° 0.3 mm 2 mps 761 mmHg 95%

17 July, Friday

Time Temperature Precipitation Wind Pressure Humidity
00:00 +26°C° 0.3 mm 2 mps 761 mmHg 96%
01:00 +26°C° 0.1 mm 2 mps 761 mmHg 97%
02:00 +26°C° 0.1 mm 2 mps 760 mmHg 97%
03:00 +25°C° 0.1 mm 1 mps 760 mmHg 97%
04:00 +26°C° 0.1 mm 1 mps 760 mmHg 96%
05:00 +26°C° 0.1 mm 1 mps 760 mmHg 95%
06:00 +26°C° 0.1 mm 1 mps 760 mmHg 94%
07:00 +28°C° 0.4 mm 1 mps 761 mmHg 86%
08:00 +29°C° 0.4 mm 1 mps 761 mmHg 77%
09:00 +31°C° 0.4 mm 1 mps 761 mmHg 69%
10:00 +32°C° 0.1 mm 1 mps 761 mmHg 65%
11:00 +34°C° 0.1 mm 2 mps 760 mmHg 60%
12:00 +35°C° 0.1 mm 3 mps 760 mmHg 56%
13:00 +34°C° 0.7 mm 3 mps 759 mmHg 65%
14:00 +33°C° 0.7 mm 3 mps 759 mmHg 74%
15:00 +31°C° 0.7 mm 3 mps 758 mmHg 83%
16:00 +30°C° 1.2 mm 3 mps 759 mmHg 86%
17:00 +29°C° 1.2 mm 3 mps 759 mmHg 89%
18:00 +28°C° 1.2 mm 2 mps 759 mmHg 92%
19:00 +27°C° 0.6 mm 2 mps 759 mmHg 93%
20:00 +27°C° 0.6 mm 2 mps 759 mmHg 94%
21:00 +26°C° 0.6 mm 2 mps 760 mmHg 95%
22:00 +26°C° 0.3 mm 1 mps 760 mmHg 96%
23:00 +25°C° 0.3 mm 1 mps 760 mmHg 96%
Show more